Home   Weather   Santa Fe   Past weeks
Flag for Argentina

Past Weather in Santa Fe, Santa Fe, Argentina — Yesterday and Last 2 Weeks

Now
38 °F

Passing clouds.


Feels Like: 38 °F
Forecast: 62 / 41 °F
Wind: 2 mph from East

Location: Sauce Viejo Aerodrome

Current Time: Jun 20, 2019 at 9:02:16 am

Latest Report: Jun 20, 2019 at 8:00 am


Visibility: 7 mi

Pressure: 30.23 "Hg

Humidity: 95%

Dew Point: 37 °F

Location of Santa FeLocation

Past Weather in Santa Fe — Graph

°F

Santa Fe Temperature Yesterday

Maximum temperature yesterday: 67 °F (at 4:00 pm)
Minimum temperature yesterday: 44 °F (at 11:00 pm)
Average temperature yesterday: 53 °F

High & Low Weather Summary for the Past Weeks

 TemperatureHumidityPressure
High76 °F (Jun 6, 3:00 pm)99% (Jun 13, 5:00 am)30.22 "Hg (Jun 13, 5:00 am)
Low38 °F (Jun 8, 7:00 am)32% (Jun 8, 5:00 pm)29.72 "Hg (Jun 13, 4:00 pm)
Average59 °F85%29.99 "Hg
* Reported Jun 5 7:00 am — Jun 20 7:00 am, Santa Fe. Weather by CustomWeather, © 2019

Note: Actual official high and low records may vary slightly from our data, if they occured in-between our weather recording intervals... More about our weather records

Advertising

Santa Fe Weather History for the Previous 24 Hours

Scroll right to see more
 ConditionsComfort  
Time TempWeatherWind HumidityBarometerVisibility
7:00 am
Thu, Jun 20
39 °FClear.2 mph93%30.21 "Hg7 mi
6:00 am40 °FClear.3 mph90%30.20 "Hg7 mi
5:00 am41 °FClear.2 mph89%30.21 "Hg7 mi
4:00 am41 °FClear.2 mph92%30.22 "Hg7 mi
3:00 am42 °FClear.2 mph91%30.22 "Hg7 mi
2:00 am42 °FClear.2 mph91%30.22 "Hg7 mi
1:00 am44 °FClear.No wind84%30.21 "Hg7 mi
12:00 am42 °FClear.3 mph91%30.22 "Hg7 mi
11:00 pm
Wed, Jun 19
44 °FClear.3 mph90%30.19 "Hg7 mi
10:00 pm48 °FClear.No wind88%30.17 "Hg7 mi
9:00 pm52 °FClear.5 mph73%30.17 "Hg7 mi
8:00 pm50 °FClear.No wind76%30.16 "Hg7 mi
6:00 pm59 °FSunny.12 mph53%30.16 "Hg7 mi
5:00 pm65 °FSunny.12 mph41%30.15 "Hg7 mi
4:00 pm67 °FSunny.14 mph37%30.15 "Hg7 mi
3:00 pm66 °FSunny.12 mph39%30.15 "Hg7 mi
2:00 pm65 °FSunny.14 mph41%30.16 "Hg7 mi
1:00 pm63 °FSunny.14 mph45%30.18 "Hg7 mi
12:00 pm61 °FSunny.14 mph45%30.19 "Hg7 mi
11:00 am58 °FSunny.12 mph51%30.19 "Hg7 mi
10:00 am54 °FSunny.13 mph62%30.18 "Hg7 mi
9:00 am47 °FSunny.8 mph78%30.16 "Hg7 mi
Weather by CustomWeather, © 2019

See weather overview